Terug naar catalogus

HYDROGNSS-2

ActiefWetenschapSSO
NORAD 66763·PAYLOAD·🇪🇺 EU

Gelanceerd Nov 28, 2025 vanaf Vandenberg Space Force Base

Loading…

Volgende Passages (komende 24 uur)

TLE

VersSource: Space-Track

Epoch: Sep 14, 2026, 11:08 UTC

1 66763U 25276DB  26257.46434490  .00002253  00000-0  13524-3 0  9996
2 66763  97.4125 327.2793 0012322  52.6046 307.6305 15.11852600 43835

Volg HYDROGNSS-2 in realtime met AllMySat

Download on the App Store